Zurück zum Katalog

STARLINK-35495

AktivKommunikationVLEO
NORAD 66243·PAYLOAD·🇺🇸 United States

Gestartet Oct 29, 2025 von Cape Canaveral Space Force Station

Loading…

Nächste Überflüge (nächste 24 Stunden)

TLE

AktuellSource: CelesTrak SupGP

Epoche: Sep 14, 2026, 14:17 UTC

1 66243C 25245K   26257.59562500  .00048041  00000+0  14192-2 0  2575
2 66243  53.1573 125.4544 0001181  99.5016 233.6580 15.34370178    10

Verfolge STARLINK-35495 in Echtzeit mit AllMySat

Download on the App Store